Location: Rancho Del Sol Observatory
(38.7214°N, 120.6350°W)
Time: 06:49:46
(UTC-08:00)

A-11 Canister half - All Passes

Search period start: 28 January 2020 00:00
Search period end: 07 February 2020 00:00
Orbit: 1517 x 1683 km, 47.2° (Epoch: 27 January)

Date Brightness Start Highest point End Pass type
(mag) Time Alt. Az. Time Alt. Az. Time Alt. Az.
28 Jan - 01:35:29 10° WNW 01:44:32 50° N 01:53:28 10° ENE visible
28 Jan - 03:41:17 10° WNW 03:50:33 70° NNE 03:59:50 10° ESE visible
28 Jan - 05:46:29 10° WNW 05:55:13 49° SW 06:04:06 10° SSE visible
28 Jan - 07:57:12 10° WSW 07:58:28 10° WSW 07:59:45 10° SW daylight
28 Jan - 21:02:13 10° SSW 21:11:05 43° SE 21:19:42 10° ENE visible
28 Jan - 23:06:05 10° WSW 23:15:37 76° NNW 23:24:56 10° ENE night (unlit)
29 Jan - 01:12:29 10° WNW 01:21:32 51° N 01:30:30 10° ENE visible
29 Jan - 03:18:22 10° WNW 03:27:36 68° NNE 03:36:52 10° ESE visible
29 Jan - 05:23:32 10° WNW 05:32:23 52° SW 05:41:20 10° SSE visible
29 Jan - 07:32:46 10° WSW 07:35:40 12° WSW 07:38:36 10° SW daylight
29 Jan - 20:39:29 10° SSW 20:48:14 40° SE 20:56:43 10° ENE visible
29 Jan - 22:43:06 10° WSW 22:52:41 79° NNW 23:02:01 10° ENE visible
30 Jan - 00:49:28 10° WNW 00:58:33 51° N 01:07:31 10° ENE visible
30 Jan - 02:55:26 10° WNW 03:04:40 65° NNE 03:13:53 10° ESE visible
30 Jan - 05:00:35 10° WNW 05:09:30 56° SW 05:18:32 10° SSE visible
30 Jan - 07:09:02 10° W 07:12:52 13° WSW 07:16:45 10° SSW daylight
30 Jan - 20:16:46 10° SSW 20:25:22 38° SE 20:33:45 10° ENE visible
30 Jan - 22:20:08 10° WSW 22:29:45 82° NNW 22:39:07 10° ENE visible
31 Jan - 00:26:27 10° W 00:35:34 51° N 00:44:33 10° ENE night (unlit)
31 Jan - 02:32:29 10° WNW 02:41:43 63° NNE 02:50:55 10° E visible
31 Jan - 04:37:39 10° WNW 04:46:39 59° SW 04:55:44 10° SE visible
31 Jan - 06:45:31 10° W 06:50:04 15° WSW 06:54:40 10° SSW visible
31 Jan - 19:54:03 10° SSW 20:02:32 35° SE 20:10:46 10° ENE visible
31 Jan - 21:57:10 10° WSW 22:06:50 85° NNW 22:16:12 10° ENE visible
01 Feb - 00:03:26 10° W 00:12:36 52° N 00:21:35 10° ENE night (unlit)
01 Feb - 02:09:33 10° WNW 02:18:46 62° NNE 02:27:56 10° E visible
01 Feb - 04:14:43 10° WNW 04:23:47 62° SW 04:32:54 10° SE visible
01 Feb - 06:22:09 10° W 06:27:16 16° SW 06:32:27 10° SSW visible
01 Feb - 19:31:22 10° S 19:39:41 33° SE 19:47:44 10° ENE visible
01 Feb - 21:34:13 10° WSW 21:43:55 88° NNW 21:53:19 10° ENE visible
01 Feb - 23:40:24 10° W 23:49:36 52° N 23:58:37 10° ENE night (unlit)
02 Feb - 01:46:35 10° WNW 01:55:49 60° NNE 02:04:56 10° E visible
02 Feb - 03:51:47 10° WNW 04:00:55 66° SW 04:10:04 10° SE visible
02 Feb - 05:58:52 10° W 06:04:28 18° SW 06:10:08 10° SSW visible
02 Feb - 19:08:43 10° S 19:16:50 31° SE 19:24:43 10° ENE visible
02 Feb - 21:11:17 10° SW 21:20:59 88° SSE 21:30:24 10° ENE visible
02 Feb - 23:17:22 10° W 23:26:37 53° N 23:35:40 10° ENE visible
03 Feb - 01:23:39 10° WNW 01:32:52 59° NNE 01:41:58 10° E visible
03 Feb - 03:28:52 10° WNW 03:38:02 70° SW 03:47:14 10° SE visible
03 Feb - 05:35:38 10° W 05:41:40 20° SW 05:47:46 10° SSW visible
03 Feb - 18:46:05 10° S 18:54:00 29° SE 19:01:40 10° ENE visible
03 Feb - 20:48:20 10° SW 20:58:04 85° SSE 21:07:30 10° ENE visible
03 Feb - 22:54:20 10° W 23:03:39 54° N 23:12:43 10° ENE visible
04 Feb - 01:00:41 10° WNW 01:09:53 57° NNE 01:18:58 10° E night (unlit)
04 Feb - 03:05:56 10° WNW 03:15:10 73° SW 03:24:23 10° SE visible
04 Feb - 05:12:27 10° W 05:18:51 21° SW 05:25:20 10° S visible
04 Feb - 18:23:28 10° S 18:31:09 27° SE 18:38:37 10° ENE visible
04 Feb - 20:25:25 10° SW 20:35:10 81° SE 20:44:35 10° ENE visible
04 Feb - 22:31:19 10° W 22:40:40 55° NNW 22:49:47 10° ENE visible
05 Feb - 00:37:42 10° WNW 00:46:56 56° NNE 00:55:59 10° E night (unlit)
05 Feb - 02:43:00 10° WNW 02:52:17 77° SW 03:01:31 10° SE visible
05 Feb - 04:49:18 10° W 04:56:03 23° SW 05:02:51 10° S visible
05 Feb - 18:00:55 10° S 18:08:18 25° SE 18:15:31 10° ENE visible
05 Feb - 20:02:30 10° SW 20:12:15 78° SE 20:21:41 10° ENE visible
05 Feb - 22:08:17 10° W 22:17:41 56° NNW 22:26:50 10° ENE visible
06 Feb - 00:14:44 10° WNW 00:23:57 55° NNE 00:33:00 10° E night (unlit)
06 Feb - 02:20:04 10° WNW 02:29:24 81° SW 02:38:39 10° SE visible
06 Feb - 04:26:11 10° WNW 04:33:15 25° SW 04:40:20 10° S visible
06 Feb - 17:38:22 10° S 17:45:28 23° SE 17:52:24 10° E daylight
06 Feb - 19:39:35 10° SW 19:49:20 74° SE 19:58:47 10° ENE visible
06 Feb - 21:45:15 10° W 21:54:42 58° NNW 22:03:54 10° ENE visible
